Regional Weather Roundup
Issued by NWS Sterling, VA

Home | Current Version | Previous Version | Graphics & Text | Print | Product List | Glossary On
Versions: 1 2 3 4 5 6 7 8 9 10 11 12 13 14 15 16 17 18 19 20 21 22 23 24 25 26 27 28 29 30 31 32 33 34 35 36 37 38 39 40 41 42 43 44 45 46 47 48 49 50
000
ASUS41 KLWX 102310
RWRLWX

REGIONAL WEATHER ROUNDUP
NATIONAL WEATHER SERVICE BALTIMORE MD/WASHINGTON DC
600 PM EST SUN DEC 10 2017

Note: "FAIR" indicates few or no clouds below 12,000 feet
with no significant weather and/or obstructions to visibility.
 TC=TEMPERATURE CELSIUS

 * =Non NWS site. Station does not report precipitation (e.g. rain,
    snow, etc.), thunder, or fog.

DCZ001-MDZ009-015-VAZ040>042-051-053>054-110000-
WASHINGTON METRO

CITY           SKY/WX    TMP DP  RH WIND       PRES   REMARKS
WASHINGTON NAT CLOUDY    39  23  52 SW6       30.07R
DULLES         PTCLDY    31  26  82 S5        30.04R
ANDREWS AFB    CLOUDY    37  23  56 SW3       30.04R
FT BELVOIR     CLOUDY    37  25  62 CALM      30.06R
QUANTICO       PTCLDY    41  24  51 SW6       30.08R
COLLEGE PARK*  CLOUDY    37  21  51 CALM      30.05R
LEESBURG*      PTCLDY    37  23  56 CALM      30.04S
MANASSAS*      CLOUDY    35  25  66 CALM      30.06R
GAITHERSBURG*  PTCLDY    35  20  54 SW3       30.03R

$$

MDZ006>007-011-014-110000-
BALTIMORE METRO

CITY           SKY/WX    TMP DP  RH WIND       PRES   REMARKS
BWI AIRPORT    CLOUDY    36  23  59 CALM      30.04R
MD SCIENCE CTR   N/A     39  21  48 MISG      30.05R
MARTIN STATE   MOCLDY    39  25  56 SW5       30.06R
ANNAPOLIS      CLOUDY    38  24  57 CALM      30.06R
FORT MEADE*    CLOUDY    32  27  80 SW3       30.08R

$$

MDZ012-015-019>023-110000-
MARYLAND EASTERN SHORE

CITY           SKY/WX    TMP DP  RH WIND       PRES   REMARKS
OCEAN CITY     CLEAR     32  27  81 SW5       30.09S
SALISBURY      CLEAR     31  28  89 SW5       30.08R
BAY BRIDGE AP* CLOUDY    39  25  56 SW6       30.06R
CAMBRIDGE*     CLEAR     32  28  86 CALM      30.08R
EASTON*        CLEAR     36  25  64 CALM      30.10R

$$

MDZ017>025-110000-
SOUTHERN MARYLAND

CITY           SKY/WX    TMP DP  RH WIND       PRES   REMARKS
PATUXENT RIVER PTCLDY    35  27  72 S7        30.08R
ST INIGOES     CLEAR     38  28  67 SW12      30.08R
LEONARDTOWN*   CLEAR     34  28  80 SW5       30.09R

$$

MDZ003>005-110000-
NORTH CENTRAL MARYLAND

CITY           SKY/WX    TMP DP  RH WIND       PRES   REMARKS
FREDERICK*     CLEAR     36  18  48 W6        30.06R
HAGERSTOWN APT MOCLDY    35  18  49 SW6       30.00S
WESTMINSTER*   PTCLDY    34  21  60 W7        30.00R

$$

MDZ501>502-110000-
WESTERN MARYLAND

CITY           SKY/WX    TMP DP  RH WIND       PRES   REMARKS
OAKLAND*       PTCLDY    21  16  79 SW9       29.85S WCI  11
CUMBERLAND*    PTCLDY    34  18  51 SW8       30.05R WCI  27

$$

VAZ025>031-110000-
SHENANDOAH VALLEY

CITY           SKY/WX    TMP DP  RH WIND       PRES   REMARKS
WINCHESTER*    PTCLDY    30  19  64 CALM      30.01S
FRONT ROYAL*   FAIR      34  19  55 S3        30.00S
LURAY*         CLEAR     34  23  64 SW6       30.01S
NEW MARKET*    PTCLDY    32  21  64 CALM      30.00S
STAUNTON*      CLEAR     32  19  58 S9        30.03S WCI  24
WAYNESBORO*    CLEAR     32  18  55 CALM      30.01S

$$

WVZ021-048>050-054>055-110000-
EASTERN WEST VIRGINIA PANHANDLE

CITY           SKY/WX    TMP DP  RH WIND       PRES   REMARKS
MARTINSBURG    PTCLDY    31  17  56 SW6       30.01R
PETERSBURG*    CLOUDY    30  18  61 NW3       30.00S

$$

VAZ036>039-050-110000-
CENTRAL FOOTHILLS

CITY           SKY/WX    TMP DP  RH WIND       PRES   REMARKS
CHARLOTTESVILL CLEAR     37  18  46 SW3       30.04S
CULPEPER*      FAIR      36  22  57 CALM      30.06S
ORANGE*        CLOUDY    36  19  51 CALM      30.05S
GORDONSVILLE*  PTCLDY    33  24  69 CALM      30.05S
WARRENTON*     PTCLDY    36  19  51 CALM      30.04S

$$

VAZ055>057-110000-
NORTH AND CENTRAL PIEDMONT

CITY           SKY/WX    TMP DP  RH WIND       PRES   REMARKS
FREDERICKSBRG* CLEAR     36  27  72 S7        30.07R
STAFFORD*      PTCLDY    36  22  56 CALM      30.10R

$$

NCZ024-NYZ072-PAZ021-071-VAZ022-071-110000-
OTHER REGIONAL OBSERVATIONS

CITY           SKY/WX    TMP DP  RH WIND       PRES   REMARKS
NEW YORK CITY  MOCLDY    37  21  52 VRB7      30.00R
PHILADELPHIA   PTCLDY    37  21  52 W15       30.04R WCI  28
PITTSBURGH     CLOUDY    32  18  56 SW8       29.94S WCI  25
ROANOKE        PTCLDY    36  19  50 W7        30.07S
RICHMOND       CLEAR     33  27  78 S8        30.10R WCI  26
RALEIGH        PTCLDY    36  25  64 CALM      30.14S

$$

ANZ530>537-110000-
MARINE OBSERVATIONS

STATION/POSITION TIME  TEMP    WIND        PRES
                       AIR SEA DIR/SP/G
                 (UTC) (F)     (DEG/KT/KT) (MB)
THOMAS PT LIGHT  2300   40 47  240/  8/  9   N/A
BALT KEY BRIDGE  2248   38     210/  5/  6 1017.6R
COVE POINT       2248   37     220/ 10/ 12 1019.1R
LEWISETTA        2248   37 44  220/  6/  7 1019.1R
SOLOMONS ISLAND  2248          210/  8/ 10 1018.3R
PINEY POINT      2248          240/  5/  8   N/A

$$




USA.gov is the U.S. government's official web portal to all federal, state and local government web resources and services.